THOR ABLESTAR DEB, 5265

Orbit data source: Space-Track

THOR ABLESTAR DEB, 5265 is space debris in LEO originally from a launch on Fri, 13 Aug 1965 UTC launched from the Air Force Western Test Range (AFWTR). Debris objects in space refer to the collection of defunct objects orbiting the Earth. Examples of debris include non-operational satellites, rocket bodies, and fragments generated from explosions, collisions, or faulty payload assembly.

Loading next visibility...
Identifier
5265, 1965-065Q
Orbit
LEO
Country
Flag of USUS
Related business
Manufacturer
Unknown
Mission
Spacecraft
Bus & Motor
Unknown
Mass
Unknown
Launch date (UTC)
1965-08-13 (60 years ago)
Launch vehicle
Unknown
Launch site
Air Force Western Test Range (AFWTR)
Object type
Payload
Rocket body
Debris
Shape & HBR
Unknown shape, 0.1 m
Radar Cross Section
Small (<0.1 m²)

Expand to show TLE details & history
Last TLE update: 21 hours ago

TLE from 21 hours ago
0 THOR ABLESTAR DEB
1 05265U 65065Q   25291.28055329  .00000278  00000-0  47583-3 0  9990
2 05265  90.1369 302.5166 0040734 326.0084  50.2978 13.42401751940161
Epoch: 2025-10-18T06:43Z
TLE epoch observation values (Epoch: 2025-10-18T06:43:59.804Z)
Latitude
16.64956°
Longitude
174.46285°
Altitude
1,083.271 km
Speed
7.321 km/s
True Right ascension
20h 09m 54s
True Declination
16° 33' 34"
Sunlit
Object was in daylight at epoch
Visualization orbit readout
Latitude
Unknown
Longitude
Unknown
Altitude
Unknown
Speed
Unknown
Apparent Right ascension
Unknown
Apparent Declination
Unknown
Sunlit
N/A
Visualization observer readout
Local Sidereal Time
22:25:40
Azimuth
Unknown
Elevation
Unknown
Doppler factor
Unknown
Orbital elements
Apogee altitude
1,127.858 km
Perigee altitude
1,066.956 km
Semi-major axis
7,475.544 km
Eccentricity
0.00407
Inclination
90.1369°
RAAN
302.5166°
Arg. of periapsis
326.0084°
True anomaly
50.6581°
Mean anomaly
50.2978°
Eccentric anomaly
50.47783°
Mean motion
3.35799 °/min
Orbital period
107.21 mins
BSTAR
0.00047583
Loading maneuver chart data...
Computing Atmospheric mass density...
Loading historical data...
Loading historical data...
Loading historical data...
Loading historical data...
Loading historical data...
Loading historical data...
Loading historical data...

Documentation

Showing up to 5 results
|